Flag for France Weather past 2 weeks in Brest, France

Now
59 °F

Passing clouds.


Feels Like: 58 °F
Forecast: 53 / 60 °F
Wind: 7 mph from Southwest

Location: Brest Airport

Current Time: Oct 20, 2014 at 12:10:01 PM

Latest Report: Oct 20, 2014 at 11:30 AM


Visibility: N/A

Pressure: 30.15 "Hg

Humidity: 88%

Dew point: 55 °F

Location of BrestLocation

Historic Weather in Brest — Graph

°F

Brest temperature yesterday

Maximum temperature yesterday: 64 °F (at 12:30 AM)
Minimum temperature yesterday: 57 °F (at 8:00 PM)
Average temperature yesterday: 61 °F

Past Weeks' High & Low Weather Summary

 TemperatureHumidityPressure
High66 °F (Oct 18, 2:30 PM)100% (Oct 6, 7:00 AM)30.18 "Hg (Oct 6, 7:00 AM)
Low43 °F (Oct 14, 4:30 AM)49% (Oct 6, 4:30 PM)29.42 "Hg (Oct 8, 7:00 AM)
Average57 °F83%29.73 "Hg
* Reported Oct 5 11:00 AM — Oct 20 11:00 AM, Brest, Weather by CustomWeather, © 2014

Note: Actual official high and low records may vary slightly from our data, if they occured in-between our weather recording intervals... More about our weather records

Advertising

Brest weather history for previous 24 hours

 ConditionsComfort  
Time TempWeatherWind HumidityBarometerVisibility
11:00 AM
Oct 20
55 °FScattered clouds.5 mph94%30.15 "HgN/A
10:30 AM55 °FScattered clouds.6 mph94%30.15 "HgN/A
10:00 AM55 °FPartly sunny.5 mph94%30.15 "HgN/A
9:30 AM55 °FPassing clouds.5 mph94%30.15 "HgN/A
9:00 AM54 °FPassing clouds.3 mph100%30.15 "Hg6 mi
8:30 AM54 °FClear.3 mph100%30.12 "Hg10 mi
8:00 AM54 °FClear.3 mph100%30.15 "Hg10 mi
7:30 AM54 °FFog.3 mph100%30.15 "Hg5 mi
7:00 AM54 °FFog.5 mph100%30.15 "Hg5 mi
5:00 AM55 °FClear.3 mph94%30.15 "Hg10 mi
4:30 AM55 °FClear.3 mph94%30.15 "Hg10 mi
4:00 AM55 °FPartly cloudy.6 mph94%30.15 "Hg4 mi
3:30 AM55 °FPassing clouds.5 mph94%30.15 "Hg6 mi
3:00 AM55 °FPassing clouds.5 mph94%30.15 "HgN/A
2:30 AM55 °FFog.2 mph94%30.15 "Hg2 mi
2:00 AM54 °FFog.2 mph94%30.15 "Hg2 mi
1:30 AM55 °FFog.3 mph94%30.15 "Hg2 mi
1:00 AM55 °FFog.3 mph94%30.15 "Hg1 mi
12:30 AM55 °FFog.5 mph100%30.15 "Hg1 mi
12:00 AM55 °FFog.6 mph100%30.15 "Hg1 mi
11:30 PM
Oct 19
57 °FPassing clouds.6 mph94%30.15 "Hg4 mi
11:00 PM57 °FPassing clouds.6 mph94%30.15 "Hg4 mi
10:30 PM57 °FFog.7 mph94%30.15 "Hg4 mi
10:00 PM57 °FFog.7 mph94%30.15 "Hg4 mi
9:30 PM57 °FPassing clouds.7 mph94%30.15 "Hg6 mi
9:00 PM57 °FClear.7 mph94%30.12 "Hg10 mi
8:30 PM57 °FClear.7 mph94%30.12 "Hg10 mi
8:00 PM57 °FSunny.7 mph94%30.12 "Hg10 mi
7:30 PM59 °FPassing clouds.7 mph88%30.12 "HgN/A
7:00 PM61 °FScattered clouds.8 mph88%30.09 "HgN/A
6:30 PM63 °FScattered clouds.10 mph88%30.09 "HgN/A
6:00 PM63 °FBroken clouds.9 mph88%30.09 "HgN/A
5:30 PM63 °FBroken clouds.9 mph88%30.09 "HgN/A
4:30 PM63 °FBroken clouds.15 mph88%30.09 "HgN/A
4:00 PM64 °FBroken clouds.14 mph83%30.09 "HgN/A
3:30 PM64 °FBroken clouds.14 mph83%30.09 "HgN/A
3:00 PM64 °FBroken clouds.14 mph83%30.09 "HgN/A
2:30 PM64 °FBroken clouds.16 mph83%30.09 "HgN/A
2:00 PM64 °FBroken clouds.15 mph83%30.09 "HgN/A
1:30 PM64 °FBroken clouds.17 mph83%30.09 "HgN/A
1:00 PM64 °FBroken clouds.16 mph83%30.09 "HgN/A
12:30 PM64 °FBroken clouds.14 mph83%30.07 "HgN/A
12:00 PM63 °FBroken clouds.15 mph88%30.07 "HgN/A
Weather by CustomWeather, © 2014

See weather overviewHow to use our weather pages